Flag for Namibia Weather past 2 weeks in Windhoek, Namibia

Now
59 °F

Refreshingly cool.


Feels Like: 59 °F
Forecast: 53 / 79 °F
Wind: 5 mph from East

Location: Windhoek

Current Time: Apr 26, 2015 at 4:47:42 AM

Latest Report: Apr 26, 2015 at 4:00 AM


Visibility: N/A

Pressure: 30.33 "Hg

Humidity: 51%

Dew point: 41 °F

Location of WindhoekLocation

Historic Weather in Windhoek — Graph

°F

Windhoek temperature yesterday

Maximum temperature yesterday: 81 °F (at 2:00 PM)
Minimum temperature yesterday: 54 °F (at 5:00 AM)
Average temperature yesterday: 66 °F

Past Weeks' High & Low Weather Summary

 TemperatureHumidityPressure
High82 °F (Apr 20, 4:00 PM)72% (Apr 13, 11:00 PM)30.42 "Hg (Apr 13, 11:00 PM)
Low52 °F (Apr 18, 5:00 AM)9% (Apr 19, 2:00 PM)30.09 "Hg (Apr 15, 3:00 PM)
Average67 °F39%30.24 "Hg
* Reported Apr 12 5:00 AM — Apr 26 3:00 AM, Windhoek, Weather by CustomWeather, © 2015

Note: Actual official high and low records may vary slightly from our data, if they occured in-between our weather recording intervals... More about our weather records

Advertising

Windhoek weather history for previous 24 hours

 ConditionsComfort  
Time TempWeatherWind HumidityBarometerVisibility
3:00 AM
Sun, Apr 26
61 °FRefreshingly cool.3 mph52%30.30 "HgN/A
2:00 AM59 °FRefreshingly cool.7 mph51%30.33 "HgN/A
1:00 AM61 °FRefreshingly cool.7 mph48%30.33 "HgN/A
12:00 AM61 °FRefreshingly cool.6 mph48%30.33 "HgN/A
11:00 PM
Sat, Apr 25
64 °FMild.3 mph43%30.36 "HgN/A
10:00 PM61 °FRefreshingly cool.3 mph52%30.36 "HgN/A
9:00 PM64 °FMild.5 mph46%30.33 "HgN/A
8:00 PM66 °FMild.2 mph40%30.33 "HgN/A
7:00 PM66 °FMild.5 mph43%30.33 "HgN/A
6:00 PM70 °FScattered showers. Passing clouds.3 mph38%30.33 "HgN/A
5:00 PM73 °FMild.5 mph31%30.30 "HgN/A
4:00 PM77 °FScattered clouds.8 mph28%30.30 "HgN/A
3:00 PM77 °FPleasantly warm.2 mph28%30.30 "HgN/A
2:00 PM81 °FPartly sunny.3 mph24%30.30 "HgN/A
12:00 PM79 °FPassing clouds.3 mph26%30.33 "HgN/A
11:00 AM79 °FPleasantly warm.5 mph24%30.39 "HgN/A
10:00 AM73 °FSunny.5 mph31%30.42 "Hg10 mi
9:00 AM72 °FMild.2 mph36%30.39 "HgN/A
8:00 AM66 °FSunny.6 mph43%30.39 "Hg10 mi
7:00 AM57 °FSunny.8 mph51%30.36 "Hg10 mi
6:00 AM54 °FCool.7 mph58%30.36 "HgN/A
5:00 AM54 °FCool.8 mph58%30.36 "HgN/A
4:00 AM55 °FRefreshingly cool.8 mph55%30.36 "HgN/A
Weather by CustomWeather, © 2015

See weather overviewHow to use our weather pages